Regional Weather Roundup
Issued by NWS Tiyan, Guam

Home | Current Version | Previous Version | Text Only | Print | Product List | Glossary On
Versions: 1 2 3 4 5 6 7 8 9 10 11 12 13 14 15 16 17 18 19 20 21 22 23 24 25 26 27 28 29 30 31 32 33 34 35 36 37 38 39 40 41 42 43 44 45 46 47 48 49 50
000
ASGM40 PGUM 260610
RWRGUM
WEATHER ROUNDUP FOR THE MARIANAS
NATIONAL WEATHER SERVICE TIYAN GU
400 PM CHST THU APR 26 2018

GUZ001>004-260700-
MARIANA ISLANDS-

CITY           SKY/WX    TMP DP  RH WIND       PRES   REMARKS
GUAM AIRPORT   MOSUNNY   88  79  74 E16G23    29.82F HX 102
ANDERSEN AFB   PTSUNNY   84  75  74 E15       29.83S HX  92
ROTA AIRPORT   PTSUNNY   82  75  78 E16       29.83S
TINIAN AP      MOSUNNY   82  75  78 E15       29.82S
SAIPAN AP      MOSUNNY   86  79  79 E17       29.84S HX  99

$$




USA.gov is the U.S. government's official web portal to all federal, state and local government web resources and services.